User: anonymous   Login
Location: Palmerston North
(40.3500°S, 175.6170°E)
Time: 16:36:58
(UTC+13:00)
Language:

Meteor 1-27 - Orbit

View from above orbital plane
View from above orbital plane
View from above satellite
View from above satellite

Ground track
Ground track

The orbit data is extracted from the following two-line orbital elements,

1  9903U 77024A   19076.80378959 -.00000068  00000-0 -46909-4 0  9991
2  9903  81.2512 183.0209 0036548 282.1283  77.5793 14.08230775154967
Epoch (UTC): 17 March 2019 19:17:27
Eccentricity: 0.0036548
inclination: 81.2512°
perigee height: 839 km
apogee height: 892 km
right ascension of ascending node: 183.0209°
argument of perigee: 282.1283°
revolutions per day: 14.08230775
mean anomaly at epoch: 77.5793°
orbit number at epoch: 15496

The dashed part of the orbit path shows where the satellite is in the earth's shadow,  

DLR